Year,Month,Day,Hour,Minute,Value (Times are PST for temperature in C)
2016,03,19,00,00,5.30
2016,03,19,00,01,5.30
2016,03,19,00,02,5.30
2016,03,19,00,03,5.30
2016,03,19,00,04,5.30
2016,03,19,00,05,5.50
2016,03,19,00,06,5.60
2016,03,19,00,07,5.70
2016,03,19,00,08,5.80
2016,03,19,00,09,5.90
2016,03,19,00,10,5.90
2016,03,19,00,11,5.90
2016,03,19,00,12,5.90
2016,03,19,00,13,5.90
2016,03,19,00,14,5.90
2016,03,19,00,15,5.90
2016,03,19,00,16,5.80
2016,03,19,00,17,5.80
2016,03,19,00,18,5.70
2016,03,19,00,19,5.70
2016,03,19,00,20,5.70
2016,03,19,00,21,5.60
2016,03,19,00,22,5.60
2016,03,19,00,23,5.50
2016,03,19,00,24,5.50
2016,03,19,00,25,5.40
2016,03,19,00,26,5.40
2016,03,19,00,27,5.40
2016,03,19,00,28,5.40
2016,03,19,00,29,5.40
2016,03,19,00,30,5.40
2016,03,19,00,31,5.40
2016,03,19,00,32,5.40
2016,03,19,00,33,5.40
2016,03,19,00,34,5.40
2016,03,19,00,35,5.40
2016,03,19,00,36,5.40
2016,03,19,00,37,5.30
2016,03,19,00,38,5.30
2016,03,19,00,39,5.30
2016,03,19,00,40,5.30
2016,03,19,00,41,5.40
2016,03,19,00,42,5.40
2016,03,19,00,43,5.50
2016,03,19,00,44,5.50
2016,03,19,00,45,5.60
2016,03,19,00,46,5.60
2016,03,19,00,47,5.60
2016,03,19,00,48,5.70
2016,03,19,00,49,5.70
2016,03,19,00,50,5.70
2016,03,19,00,51,5.70
2016,03,19,00,52,5.80
2016,03,19,00,53,5.80
2016,03,19,00,54,5.80
2016,03,19,00,55,5.80
2016,03,19,00,56,5.90
2016,03,19,00,57,5.90
2016,03,19,00,58,5.90
2016,03,19,00,59,6.00
2016,03,19,01,00,6.00
2016,03,19,01,01,6.10
2016,03,19,01,02,6.10
2016,03,19,01,03,6.10
2016,03,19,01,04,6.10
2016,03,19,01,05,6.10
2016,03,19,01,06,6.10
2016,03,19,01,07,6.10
2016,03,19,01,08,6.10
2016,03,19,01,09,6.10
2016,03,19,01,10,6.10
2016,03,19,01,11,6.20
2016,03,19,01,12,6.20
2016,03,19,01,13,6.10
2016,03,19,01,14,6.10
2016,03,19,01,15,6.10
2016,03,19,01,16,6.10
2016,03,19,01,17,6.10
2016,03,19,01,18,6.10
2016,03,19,01,19,6.10
2016,03,19,01,20,6.10
2016,03,19,01,21,6.10
2016,03,19,01,22,6.00
2016,03,19,01,23,6.10
2016,03,19,01,24,6.10
2016,03,19,01,25,6.10
2016,03,19,01,26,6.00
2016,03,19,01,27,6.10
2016,03,19,01,28,6.10
2016,03,19,01,29,6.10
2016,03,19,01,30,6.00
2016,03,19,01,31,6.00
2016,03,19,01,32,6.00
2016,03,19,01,33,6.00
2016,03,19,01,34,6.00
2016,03,19,01,35,6.00
2016,03,19,01,36,6.00
2016,03,19,01,37,6.10
2016,03,19,01,38,6.10
2016,03,19,01,39,6.10
2016,03,19,01,40,6.10
2016,03,19,01,41,6.10
2016,03,19,01,42,6.00
2016,03,19,01,43,6.00
2016,03,19,01,44,6.00
2016,03,19,01,45,5.90
2016,03,19,01,46,5.90
2016,03,19,01,47,5.90
2016,03,19,01,48,5.90
2016,03,19,01,49,5.90
2016,03,19,01,50,5.90
2016,03,19,01,51,5.90
2016,03,19,01,52,5.90
2016,03,19,01,53,5.90
2016,03,19,01,54,5.80
2016,03,19,01,55,5.80
2016,03,19,01,56,5.80
2016,03,19,01,57,5.80
2016,03,19,01,58,5.80
2016,03,19,01,59,5.80
2016,03,19,02,00,5.90
2016,03,19,02,01,6.00
2016,03,19,02,02,6.10
2016,03,19,02,03,6.20
2016,03,19,02,04,6.20
2016,03,19,02,05,6.20
2016,03,19,02,06,6.20
2016,03,19,02,07,6.20
2016,03,19,02,08,6.20
2016,03,19,02,09,6.20
2016,03,19,02,10,6.10
2016,03,19,02,11,6.10
2016,03,19,02,12,6.10
2016,03,19,02,13,6.00
2016,03,19,02,14,6.00
2016,03,19,02,15,5.90
2016,03,19,02,16,5.90
2016,03,19,02,17,5.80
2016,03,19,02,18,5.80
2016,03,19,02,19,5.80
2016,03,19,02,20,5.80
2016,03,19,02,21,5.80
2016,03,19,02,22,5.80
2016,03,19,02,23,5.70
2016,03,19,02,24,5.70
2016,03,19,02,25,5.70
2016,03,19,02,26,5.70
2016,03,19,02,27,5.70
2016,03,19,02,28,5.80
2016,03,19,02,29,5.80
2016,03,19,02,30,5.80
2016,03,19,02,31,5.80
2016,03,19,02,32,5.80
2016,03,19,02,33,5.70
2016,03,19,02,34,5.70
2016,03,19,02,35,5.70
2016,03,19,02,36,5.70
2016,03,19,02,37,5.80
2016,03,19,02,38,5.80
2016,03,19,02,39,5.80
2016,03,19,02,40,5.70
2016,03,19,02,41,5.70
2016,03,19,02,42,5.70
2016,03,19,02,43,5.70
2016,03,19,02,44,5.60
2016,03,19,02,45,5.60
2016,03,19,02,46,5.60
2016,03,19,02,47,5.50
2016,03,19,02,48,5.50
2016,03,19,02,49,5.50
2016,03,19,02,50,5.50
2016,03,19,02,51,5.50
2016,03,19,02,52,5.50
2016,03,19,02,53,5.60
2016,03,19,02,54,5.60
2016,03,19,02,55,5.60
2016,03,19,02,56,5.60
2016,03,19,02,57,5.60
2016,03,19,02,58,5.60
2016,03,19,02,59,5.60
2016,03,19,03,00,5.60
2016,03,19,03,01,5.70
2016,03,19,03,02,5.70
2016,03,19,03,03,5.70
2016,03,19,03,04,5.70
2016,03,19,03,05,5.70
2016,03,19,03,06,5.70
2016,03,19,03,07,5.70
2016,03,19,03,08,5.70
2016,03,19,03,09,5.60
2016,03,19,03,10,5.60
2016,03,19,03,11,5.60
2016,03,19,03,12,5.60
2016,03,19,03,13,5.60
2016,03,19,03,14,5.70
2016,03,19,03,15,5.70
2016,03,19,03,16,5.80
2016,03,19,03,17,5.90
2016,03,19,03,18,5.90
2016,03,19,03,19,5.80
2016,03,19,03,20,5.80
2016,03,19,03,21,5.80
2016,03,19,03,22,5.80
2016,03,19,03,23,5.80
2016,03,19,03,24,5.80
2016,03,19,03,25,5.80
2016,03,19,03,26,5.80
2016,03,19,03,27,5.80
2016,03,19,03,28,5.80
2016,03,19,03,29,5.80
2016,03,19,03,30,5.80
2016,03,19,03,31,5.80
2016,03,19,03,32,5.80
2016,03,19,03,33,5.80
2016,03,19,03,34,5.80
2016,03,19,03,35,5.80
2016,03,19,03,36,5.80
2016,03,19,03,37,5.80
2016,03,19,03,38,5.90
2016,03,19,03,39,5.90
2016,03,19,03,40,5.90
2016,03,19,03,41,6.00
2016,03,19,03,42,5.90
2016,03,19,03,43,5.90
2016,03,19,03,44,5.90
2016,03,19,03,45,5.90
2016,03,19,03,46,5.90
2016,03,19,03,47,5.90
2016,03,19,03,48,5.90
2016,03,19,03,49,5.90
2016,03,19,03,50,5.90
2016,03,19,03,51,5.90
2016,03,19,03,52,5.90
2016,03,19,03,53,5.90
2016,03,19,03,54,5.90
2016,03,19,03,55,5.90
2016,03,19,03,56,5.90
2016,03,19,03,57,5.90
2016,03,19,03,58,5.90
2016,03,19,03,59,5.90
2016,03,19,04,00,5.90
2016,03,19,04,01,6.00
2016,03,19,04,02,6.00
2016,03,19,04,03,6.00
2016,03,19,04,04,6.00
2016,03,19,04,05,6.00
2016,03,19,04,06,6.00
2016,03,19,04,07,6.00
2016,03,19,04,08,6.00
2016,03,19,04,09,6.00
2016,03,19,04,10,6.00
2016,03,19,04,11,6.10
2016,03,19,04,12,6.10
2016,03,19,04,13,6.10
2016,03,19,04,14,6.00
2016,03,19,04,15,6.00
2016,03,19,04,16,6.00
2016,03,19,04,17,5.90
2016,03,19,04,18,6.00
2016,03,19,04,19,6.00
2016,03,19,04,20,6.10
2016,03,19,04,21,6.10
2016,03,19,04,22,6.10
2016,03,19,04,23,6.10
2016,03,19,04,24,6.10
2016,03,19,04,25,6.20
2016,03,19,04,26,6.20
2016,03,19,04,27,6.20
2016,03,19,04,28,6.20
2016,03,19,04,29,6.20
2016,03,19,04,30,6.10
2016,03,19,04,31,6.10
2016,03,19,04,32,6.10
2016,03,19,04,33,6.20
2016,03,19,04,34,6.20
2016,03,19,04,35,6.10
2016,03,19,04,36,6.10
2016,03,19,04,37,6.10
2016,03,19,04,38,6.10
2016,03,19,04,39,6.10
2016,03,19,04,40,6.10
2016,03,19,04,41,6.10
2016,03,19,04,42,6.10
2016,03,19,04,43,6.10
2016,03,19,04,44,6.10
2016,03,19,04,45,6.10
2016,03,19,04,46,6.10
2016,03,19,04,47,6.10
2016,03,19,04,48,6.10
2016,03,19,04,49,6.10
2016,03,19,04,50,6.10
2016,03,19,04,51,6.00
2016,03,19,04,52,6.00
2016,03,19,04,53,6.00
2016,03,19,04,54,6.00
2016,03,19,04,55,6.00
2016,03,19,04,56,6.10
2016,03,19,04,57,6.00
2016,03,19,04,58,6.00
2016,03,19,04,59,6.10
2016,03,19,05,00,6.10
2016,03,19,05,01,6.10
2016,03,19,05,02,6.10
2016,03,19,05,03,6.10
2016,03,19,05,04,6.10
2016,03,19,05,05,6.10
2016,03,19,05,06,6.10
2016,03,19,05,07,6.10
2016,03,19,05,08,6.10
2016,03,19,05,09,6.10
2016,03,19,05,10,6.10
2016,03,19,05,11,6.10
2016,03,19,05,12,6.20
2016,03,19,05,13,6.20
2016,03,19,05,14,6.20
2016,03,19,05,15,6.30
2016,03,19,05,16,6.30
2016,03,19,05,17,6.30
2016,03,19,05,18,6.30
2016,03,19,05,19,6.30
2016,03,19,05,20,6.30
2016,03,19,05,21,6.30
2016,03,19,05,22,6.30
2016,03,19,05,23,6.30
2016,03,19,05,24,6.30
2016,03,19,05,25,6.30
2016,03,19,05,26,6.30
2016,03,19,05,27,6.40
2016,03,19,05,28,6.40
2016,03,19,05,29,6.50
2016,03,19,05,30,6.50
2016,03,19,05,31,6.50
2016,03,19,05,32,6.60
2016,03,19,05,33,6.60
2016,03,19,05,34,6.60
2016,03,19,05,35,6.60
2016,03,19,05,36,6.50
2016,03,19,05,37,6.50
2016,03,19,05,38,6.50
2016,03,19,05,39,6.50
2016,03,19,05,40,6.50
2016,03,19,05,41,6.50
2016,03,19,05,42,6.40
2016,03,19,05,43,6.40
2016,03,19,05,44,6.40
2016,03,19,05,45,6.40
2016,03,19,05,46,6.40
2016,03,19,05,47,6.40
2016,03,19,05,48,6.50
2016,03,19,05,49,6.50
2016,03,19,05,50,6.50
2016,03,19,05,51,6.50
2016,03,19,05,52,6.50
2016,03,19,05,53,6.60
2016,03,19,05,54,6.60
2016,03,19,05,55,6.60
2016,03,19,05,56,6.60
2016,03,19,05,57,6.60
2016,03,19,05,58,6.60
2016,03,19,05,59,6.60
2016,03,19,06,00,6.60
2016,03,19,06,01,6.60
2016,03,19,06,02,6.50
2016,03,19,06,03,6.50
2016,03,19,06,04,6.50
2016,03,19,06,05,6.50
2016,03,19,06,06,6.40
2016,03,19,06,07,6.40
2016,03,19,06,08,6.40
2016,03,19,06,09,6.40
2016,03,19,06,10,6.40
2016,03,19,06,11,6.40
2016,03,19,06,12,6.40
2016,03,19,06,13,6.40
2016,03,19,06,14,6.40
2016,03,19,06,15,6.30
2016,03,19,06,16,6.30
2016,03,19,06,17,6.30
2016,03,19,06,18,6.30
2016,03,19,06,19,6.30
2016,03,19,06,20,6.30
2016,03,19,06,21,6.30
2016,03,19,06,22,6.30
2016,03,19,06,23,6.40
2016,03,19,06,24,6.40
2016,03,19,06,25,6.40
2016,03,19,06,26,6.50
2016,03,19,06,27,6.50
2016,03,19,06,28,6.50
2016,03,19,06,29,6.50
2016,03,19,06,30,6.50
2016,03,19,06,31,6.40
2016,03,19,06,32,6.40
2016,03,19,06,33,6.40
2016,03,19,06,34,6.40
2016,03,19,06,35,6.30
2016,03,19,06,36,6.40
2016,03,19,06,37,6.40
2016,03,19,06,38,6.50
2016,03,19,06,39,6.60
2016,03,19,06,40,6.50
2016,03,19,06,41,6.50
2016,03,19,06,42,6.50
2016,03,19,06,43,6.40
2016,03,19,06,44,6.40
2016,03,19,06,45,6.30
2016,03,19,06,46,6.30
2016,03,19,06,47,6.30
2016,03,19,06,48,6.30
2016,03,19,06,49,6.30
2016,03,19,06,50,6.20
2016,03,19,06,51,6.20
2016,03,19,06,52,6.10
2016,03,19,06,53,6.10
2016,03,19,06,54,6.00
2016,03,19,06,55,6.00
2016,03,19,06,56,6.00
2016,03,19,06,57,6.00
2016,03,19,06,58,5.90
2016,03,19,06,59,5.90
2016,03,19,07,00,5.90
2016,03,19,07,01,5.90
2016,03,19,07,02,5.90
2016,03,19,07,03,5.80
2016,03,19,07,04,5.80
2016,03,19,07,05,5.80
2016,03,19,07,06,5.80
2016,03,19,07,07,5.80
2016,03,19,07,08,5.70
2016,03,19,07,09,5.70
2016,03,19,07,10,5.70
2016,03,19,07,11,5.70
2016,03,19,07,12,5.70
2016,03,19,07,13,5.70
2016,03,19,07,14,5.70
2016,03,19,07,15,5.70
2016,03,19,07,16,5.70
2016,03,19,07,17,5.70
2016,03,19,07,18,5.70
2016,03,19,07,19,5.70
2016,03,19,07,20,5.70
2016,03,19,07,21,5.70
2016,03,19,07,22,5.70
